ABW105 LFPG-LTFM

Flight info

Callsign ABW105
Flight time N/A
Altitude 35000
Route LANVI DCT BEGAR DCT TRA DCT GAMSA DCT UMVEG DCT BEDOX DCT NASSY DCT OKLOP DCT ETIDA T390 RILEX
Aircraft B77L/H-SDE1E2E3FGHIJ2J3J4J5M1RWXY/LB1D1

Departure

Time 2026-05-07 12:11
Airport Charles de Gaulle International Airport (LFPG)

Arrival

Time N/A
Airport İstanbul Airport (LTFM)
Time Latitude Longitude Altitude Speed Heading
2026-05-07 11:53 49.01152 2.50569 355 ft 0 kts 84°
2026-05-07 12:03 49.01151 2.50550 362 ft 2 kts 84°
2026-05-07 12:03 49.01150 2.50531 355 ft 3 kts 84°
2026-05-07 12:03 49.01148 2.50490 357 ft 3 kts 84°
2026-05-07 12:04 49.01146 2.50470 359 ft 3 kts 84°
2026-05-07 12:04 49.01144 2.50440 362 ft 3 kts 69°
2026-05-07 12:04 49.01133 2.50416 364 ft 2 kts 16°
2026-05-07 12:04 49.01119 2.50413 364 ft 0 kts 355°
2026-05-07 12:06 49.01120 2.50413 364 ft 1 kts 355°
2026-05-07 12:06 49.01155 2.50409 363 ft 10 kts 355°
2026-05-07 12:06 49.01259 2.50396 363 ft 19 kts 355°
2026-05-07 12:07 49.01377 2.50383 361 ft 14 kts
2026-05-07 12:07 49.01432 2.50494 360 ft 14 kts 83°
2026-05-07 12:07 49.01441 2.50647 355 ft 14 kts 85°
2026-05-07 12:07 49.01450 2.50803 359 ft 15 kts 85°
2026-05-07 12:08 49.01459 2.50962 358 ft 15 kts 85°
2026-05-07 12:08 49.01466 2.51120 360 ft 15 kts 86°
2026-05-07 12:08 49.01498 2.51266 364 ft 15 kts 42°
2026-05-07 12:08 49.01599 2.51288 362 ft 15 kts 356°
2026-05-07 12:09 49.01703 2.51276 360 ft 15 kts 355°
2026-05-07 12:09 49.01808 2.51263 359 ft 15 kts 355°
2026-05-07 12:09 49.01912 2.51250 363 ft 15 kts 357°
2026-05-07 12:09 49.02007 2.51302 366 ft 15 kts 45°
2026-05-07 12:10 49.02069 2.51486 363 ft 32 kts 79°
2026-05-07 12:10 49.02102 2.52018 364 ft 74 kts 85°
2026-05-07 12:10 49.02157 2.53036 364 ft 118 kts 85°
2026-05-07 12:10 49.02235 2.54478 361 ft 154 kts 85°
2026-05-07 12:11 49.02337 2.56229 430 ft 175 kts 84°
2026-05-07 12:11 49.02461 2.58013 926 ft 171 kts 84°
2026-05-07 12:11 49.02561 2.59869 1419 ft 178 kts 85°
2026-05-07 12:11 49.02647 2.61762 2020 ft 180 kts 85°
2026-05-07 12:12 49.02745 2.63761 2352 ft 201 kts 85°
2026-05-07 12:12 49.02858 2.66003 2603 ft 224 kts 85°
2026-05-07 12:12 49.02983 2.68495 2951 ft 244 kts 85°
2026-05-07 12:12 49.03119 2.71136 3572 ft 255 kts 85°
2026-05-07 12:13 49.03253 2.73862 4297 ft 261 kts 86°
2026-05-07 12:13 49.03387 2.76648 5074 ft 266 kts 86°
2026-05-07 12:13 49.03522 2.79469 5883 ft 268 kts 86°
2026-05-07 12:13 49.03659 2.82315 6699 ft 271 kts 86°
2026-05-07 12:14 49.03797 2.85203 7414 ft 276 kts 86°
2026-05-07 12:14 49.03937 2.88144 8130 ft 281 kts 86°
2026-05-07 12:14 49.04079 2.91134 8885 ft 285 kts 86°
2026-05-07 12:14 49.04180 2.94160 9566 ft 287 kts 94°
2026-05-07 12:15 49.03860 2.97198 10130 ft 294 kts 104°
2026-05-07 12:15 49.03324 3.00288 10466 ft 313 kts 106°
2026-05-07 12:15 49.02708 3.03598 10652 ft 337 kts 106°
2026-05-07 12:15 49.02053 3.07158 10846 ft 361 kts 106°
2026-05-07 12:16 49.01377 3.10927 11297 ft 375 kts 105°
2026-05-07 12:16 49.00694 3.14818 11986 ft 385 kts 105°
2026-05-07 12:16 49.00010 3.18785 12865 ft 390 kts 105°
2026-05-07 12:16 48.99323 3.22800 13769 ft 394 kts 105°
2026-05-07 12:17 48.98630 3.26864 14541 ft 399 kts 105°
2026-05-07 12:17 48.97937 3.30925 15332 ft 403 kts 105°
2026-05-07 12:17 48.97217 3.35136 16125 ft 408 kts 105°
2026-05-07 12:17 48.96507 3.39278 16887 ft 413 kts 105°
2026-05-07 12:18 48.95777 3.43524 17648 ft 417 kts 105°